Hourly Weather Roundup
Issued by NWS Central Illinois

Home | Current Version | Previous Version | Text Only | Print | Product List | Glossary On
Versions: 1 2 3 4 5 6 7 8 9 10 11 12 13 14 15 16 17 18 19 20 21 22 23 24 25 26 27 28 29 30 31 32 33 34 35 36 37 38 39 40 41 42 43 44 45 46 47 48 49 50
000
NZUS43 KILX 200010
HWRILX

Area Weather Roundup
National Weather Service Lincoln IL
700 PM CDT TUE SEP 19 2017

NOTE:  "FAIR" indicates few or no clouds below 12,000 feet, with
       no sigificant weather and/or obstructions to visibility.


CITY           SKY/WX    TMP DP  RH WIND       PRES   REMARKS
Bloomington    CLEAR     76  65  68 S5        29.90S
6HR MIN TEMP:  75; 6HR MAX TEMP:  82;

Champaign      CLEAR     76  64  66 E3        29.90S
6HR MIN TEMP:  72; 6HR MAX TEMP:  83;

Danville       CLEAR     70  67  88 CALM      29.88F
6HR MIN TEMP:  70; 6HR MAX TEMP:  79;

Decatur        CLEAR     76  67  73 NE5       29.88S
6HR MIN TEMP:  76; 6HR MAX TEMP:  84; 6HR PCP: TRACE;

Effingham      CLEAR     79  67  66 CALM      29.90S HX  81
6HR MIN TEMP:  79; 6HR MAX TEMP:  89;

Flora          PTCLDY    82  68  63 S3        29.89S HX  84
6HR MIN TEMP:  82; 6HR MAX TEMP:  89;

Galesburg      CLEAR     74  65  73 SE3       29.86F
6HR MIN TEMP:  74; 6HR MAX TEMP:  80;

Jacksonville   CLEAR     78  65  64 SE3       29.85S HX  80
6HR MIN TEMP:  78; 6HR MAX TEMP:  85;

Lacon          CLEAR     72  67  85 E3        29.87S
6HR MIN TEMP:  68; 6HR MAX TEMP:  78;

Lawrenceville  CLEAR     77  69  76 S7        29.89S
6HR MIN TEMP:  77; 6HR MAX TEMP:  85;

Litchfield     CLEAR     78  68  69 E3        29.87F HX  80
6HR MIN TEMP:  78; 6HR MAX TEMP:  85; 6HR PCP:  0.04;

$$


CITY           SKY/WX    TMP DP  RH WIND       PRES   REMARKS
Lincoln        CLEAR     76  67  73 E3        29.88R
6HR MIN TEMP:  74; 6HR MAX TEMP:  83;

Macomb         CLEAR     75  67  76 E5        29.87S
6HR MIN TEMP:  74; 6HR MAX TEMP:  82;

Mattoon        CLEAR     78  66  66 N5        29.88S HX  80
6HR MIN TEMP:  78; 6HR MAX TEMP:  86;

Mt Carmel AP   CLEAR     77  67  72 SE6       29.89S
6HR MIN TEMP:  77; 6HR MAX TEMP:  88;

Olney-Noble AP PTCLDY    79  65  63 S3        29.90R HX  81
Paris AP       CLEAR     76  65  67 CALM      29.90F
6HR MIN TEMP:  76; 6HR MAX TEMP:  85;

Peoria         CLEAR     76  66  71 SE5       29.87F
6HR MIN TEMP:  76; 6HR MAX TEMP:  81;

Pontiac        CLEAR     77  66  70 CALM      29.90R
6HR MIN TEMP:  76; 6HR MAX TEMP:  81;

Rantoul        CLEAR     77  68  75 CALM      29.90S
6HR MIN TEMP:  74; 6HR MAX TEMP:  82;

Robinson       PTCLDY    75  69  80 SE5       29.90S
6HR MIN TEMP:  75; 6HR MAX TEMP:  84;

Springfield    CLEAR     80  66  62 E6        29.86S HX  82
6HR MIN TEMP:  80; 6HR MAX TEMP:  88;

Taylorville    CLEAR     78  66  66 CALM      29.87S HX  80
6HR MIN TEMP:  78; 6HR MAX TEMP:  85;

$$

...REGIONAL REPORTS...


CITY           SKY/WX    TMP DP  RH WIND       PRES   REMARKS
Chicago O`Hare PTCLDY    71  62  73 E8        29.91S
Kankakee       CLEAR     72  65  77 E5        29.90S
Moline         CLEAR     76  63  64 E7        29.84S
Mount Sterling CLEAR     76  66  71 E5        29.84S
Mount Vernon     N/A     77  69  76 CALM      29.88
Pittsfield     CLEAR     78  68  72 SE5       29.85S HX  80
Quincy         CLEAR     80  67  64 SE6       29.83S HX  82
Rockford       PTCLDY    74  64  71 SE8       29.89S
$$


CITY           SKY/WX    TMP DP  RH WIND       PRES   REMARKS
Burlington     CLEAR     77  67  71 E7        29.82F
Cedar Rapids   CLEAR     76  64  66 SE8       29.80F
Des Moines     PTCLDY    81  68  64 SE21      29.71F HX  84
Kirksville     CLEAR     80  66  62 SE9       29.80S HX  82
Ottumwa        CLEAR     79  66  64 SE13      29.77F HX  81
St Louis       CLEAR     84  66  54 E8        29.84F HX  86
$$


CITY           SKY/WX    TMP DP  RH WIND       PRES   REMARKS
Terre Haute    MOCLDY    77  67  71 N5        29.90R
Evansville     CLEAR     77  68  73 CALM      29.90F
Indianapolis   MOCLDY    77  65  66 CALM      29.91S
Lafayette      CLEAR     72  67  84 CALM      29.89F
Madison        PTCLDY    75  63  66 SE10      29.87F
Milwaukee      CLOUDY    67  64  90 E5        29.93S
$$






USA.gov is the U.S. government's official web portal to all federal, state and local government web resources and services.